Location: Newark
(35.2672°N, 80.7344°W)
Time: 19:02:14
(UTC+00:00)

Transit 2A Rocket - Visible Passes

Search period start: 19 January 2020 00:00
Search period end: 29 January 2020 00:00
Orbit: 593 x 910 km, 66.7° (Epoch: 18 January)

Date Brightness Start Highest point End Pass type
(mag) Time Alt. Az. Time Alt. Az. Time Alt. Az.
19 Jan 4.5 11:37:33 10° SSW 11:41:57 85° ESE 11:46:15 10° NNE visible
20 Jan 5.9 10:55:24 10° S 10:59:30 40° ESE 11:03:31 10° NE visible
21 Jan 7.1 10:13:57 10° SSE 10:17:08 20° ESE 10:20:17 10° ENE visible
21 Jan 5.3 11:55:36 10° WSW 11:59:26 30° WNW 12:03:14 10° N visible
22 Jan 4.5 11:12:31 10° SW 11:16:49 59° WNW 11:21:04 10° NNE visible
23 Jan 4.8 10:31:36 22° SSW 10:34:18 66° ESE 10:38:34 10° NNE visible
24 Jan 6.3 09:52:32 30° E 09:52:32 30° E 09:55:42 10° NE visible
24 Jan 5.8 11:32:34 16° W 11:34:26 20° NW 11:37:39 10° N visible
25 Jan 5.2 10:52:33 34° NNW 10:52:33 34° NNW 10:55:45 10° N visible
26 Jan 6.5 10:12:07 20° NNE 10:12:07 20° NNE 10:13:28 10° NNE visible
27 Jan 6.7 11:11:20 11° NNW 11:11:20 11° NNW 11:11:44 10° NNW visible
